Regional Weather Roundup
Issued by NWS

Home | Current Version | Previous Version | Graphics & Text | Print | Product List | Glossary On
Versions: 1 2 3 4 5 6 7 8 9 10 11 12 13 14 15 16 17 18 19 20 21 22 23 24 25 26 27 28 29 30 31 32 33 34 35 36 37 38 39 40 41 42 43 44 45 46 47 48 49 50
000
ASUS43 KLSX 220807
RWRMO

WEATHER SUMMARY FOR MISSOURI
NATIONAL WEATHER SERVICE SPRINGFIELD MO
200 AM CST SUN JAN 22 2017

NOTE: "FAIR" INDICATES FEW OR NO CLOUDS BELOW 12,000 FEET WITH NO
       SIGNIFICANT WEATHER AND/OR OBSTRUCTIONS TO VISIBILITY.
       CURRENT SKY AND/OR WEATHER CONDITIONS ARE NOT AVAILABLE FOR
       CHILLICOTHE AND FARMINGTON.

MOZ001>031-035>038-043-044-053-054-220900-
...NORTHERN AND WESTERN MISSOURI...

CITY           SKY/WX    TMP DP  RH WIND       PRES   REMARKS
KANSAS CTY INT CLOUDY    46  41  82 NE10      29.53S
KANSAS C DTWN  LGT RAIN  47  45  93 NE7       29.53S
LEE`S SUMMIT   LGT RAIN  46  45  96 NE7       29.52S
ST JOSEPH      CLOUDY    41  41 100 N7        29.55S
CHILLICOTHE      N/A     44  42  93 NE5       29.56F
KIRKSVILLE     CLOUDY    40  39  97 N7        29.56F FOG

$$
MOZ066>068-077>081-088>096-101>105-220900-
...SOUTHWEST MISSOURI...

CITY           SKY/WX    TMP DP  RH WIND       PRES   REMARKS
SPRINGFIELD    CLOUDY    50  48  93 N6        29.42S
JOPLIN         CLOUDY    51  49  92 N9        29.43S
BRANSON        CLOUDY    48  48 100 E3        29.43R

$$
MOZ032>034-039>042-045>050-055>058-069>072-220900-
...CENTRAL MISSOURI...

CITY           SKY/WX    TMP DP  RH WIND       PRES   REMARKS
COLUMBIA       LGT RAIN  48  46  93 NE10      29.51F
JEFFERSON CITY CLOUDY    52  45  77 NE10      29.48F
ROLLA          CLOUDY    49  47  93 NE8       29.46F
SEDALIA        CLOUDY    48  45  89 NE7       29.52F
WHITEMAN AFB   MOCLDY    47  47 100 NE8       29.51R
WARRENSBURG    CLOUDY    45  43  93 NE6       29.53R
OSAGE BEACH    CLOUDY    49  47  93 NE7       29.48S

$$
MOZ051-052-059>065-220900-
...EAST CENTRAL MISSOURI...

CITY           SKY/WX    TMP DP  RH WIND       PRES   REMARKS
ST LOUIS INTL  MOCLDY    51  41  68 NE5       29.50S
SPIRIT OF STL  CLOUDY    42  40  92 CALM      29.50S
ST CHARLES     PTCLDY    48  42  80 NE7       29.50R

$$
MOZ072>076-082>087-097>100-106>115-220900-
...SOUTH CENTRAL AND SOUTHEAST MISSOURI...

CITY           SKY/WX    TMP DP  RH WIND       PRES   REMARKS
CAPE GIRARDEAU CLOUDY    49  48  97 SE5       29.47R
FARMINGTON     MOCLDY    45  45 100 CALM      29.48S FOG
POPLAR BLUFF   CLOUDY    53  52  96 CALM      29.46R
WEST PLAINS    CLOUDY    56  54  93 S6        29.45R

$$



USA.gov is the U.S. government's official web portal to all federal, state and local government web resources and services.